User: anonymous   Login
Location: Hurstbourne Priors
(51.2000°N, 1.3667°W)
Time: 12:02:09
(UTC+00:00)
Language:

Transit 4A - Orbit

View from above orbital plane
View from above orbital plane
View from above satellite
View from above satellite

Ground track
Ground track

The orbit data is extracted from the following two-line orbital elements,

1 00116U 61015A   21166.94344070 -.00000050  00000-0  20880-4 0  9996
2 00116  66.8111  39.6065 0069319 116.5160 244.3049 13.91791895 42397
Epoch (UTC): 15 June 2021 22:38:33
Eccentricity: 0.0069319
inclination: 66.8111°
perigee height: 872 km
apogee height: 973 km
right ascension of ascending node: 39.6065°
argument of perigee: 116.5160°
revolutions per day: 13.91791895
mean anomaly at epoch: 244.3049°
orbit number at epoch: 4239

The dashed part of the orbit path shows where the satellite is in the earth's shadow,  

DLR